Morning Lady — 3FKC3 — position and weather

sailwx.info

Track history (hours):
 
Tides and Currents Weather Stations Pressure Air Temp Water Temp Dewpoint Dewpoint Depression Visibility Wind Speed Wind Dir Waves Ship Positions

Morning Lady

Last reported at 2014-Oct-23 03:34 UTC. Time now 2014-Oct-24 16:19 UTC.
Position N 36°32' E 013°49'.

Length 234 m; draft 9.9 m.

Type: Ship. MMSI: 356473000.

Date/timePositionNaut miles runAvg speedWind from/ knotsBaromVisibWave heightAir tempDewpointWater temp
2014-Oct-23 03:34N 36°32' E 013°49'53616.2
2014-Oct-21 18:22N 40°42' E 003°42'1518.4
2014-Oct-21 17:33N 40°49' E 003°24'2018.1
2014-Oct-21 16:27N 40°58' E 003°01'1617.7
2014-Oct-21 15:33N 41°04' E 002°42'1817.3
2014-Oct-21 14:32N 41°12' E 002°21'21 1.1
2014-Oct-20 19:33N 40°56' E 002°02'1513.8
2014-Oct-20 18:26N 40°43' E 001°52'1415.0
2014-Oct-20 17:29N 40°30' E 001°43'1413.5
2014-Oct-20 16:26N 40°17' E 001°35'1314.1
2014-Oct-20 15:31N 40°06' E 001°27'1814.2
2014-Oct-20 14:17N 39°51' E 001°16'11714.9
2014-Oct-20 06:25N 38°08' E 000°03'1315.0
2014-Oct-20 05:33N 37°57' W 000°05'1514.9
2014-Oct-20 04:33N 37°43' W 000°14'1515.1
2014-Oct-20 03:33N 37°30' W 000°23'3115.3
2014-Oct-20 01:33N 37°04' W 000°42'1515.1
2014-Oct-20 00:32N 36°54' W 000°58'1515.3
2014-Oct-19 23:33N 36°47' W 001°14'20215.5
2014-Oct-19 10:33N 35°59' W 005°18'9415.3
2014-Oct-19 04:26N 36°05' W 007°13'1415.5
2014-Oct-19 03:32N 36°08' W 007°30'1515.4
2014-Oct-19 02:33N 36°11' W 007°48'1615.8
2014-Oct-19 01:33N 36°16' W 008°07'1615.6
2014-Oct-19 00:32N 36°19' W 008°26'1515.7
2014-Oct-18 23:33N 36°23' W 008°45'1616.0
2014-Oct-18 22:34N 36°27' W 009°04'1515.4
2014-Oct-18 21:33N 36°32' W 009°22'6915.4
2014-Oct-18 17:03N 37°37' W 009°53'1215.8
2014-Oct-18 16:16N 37°49' W 009°56'1115.7
2014-Oct-18 15:33N 38°00' W 009°60'1615.6
2014-Oct-18 14:33N 38°15' W 010°05'  
2014-Oct-16 03:27N 49°47' W 003°28'1415.4
2014-Oct-16 02:33N 49°53' W 003°10'1514.8
2014-Oct-16 01:32N 50°00' W 002°49'8113.5
2014-Oct-15 19:33N 50°39' W 000°58'9 8.9
2014-Oct-15 18:34N 50°45' W 001°08'10 9.6
2014-Oct-15 17:34N 50°51' W 001°21'3 3.1
2014-Oct-15 16:32N 50°54' W 001°24'0 0.0
2014-Oct-15 15:29N 50°54' W 001°24'0 0.0
2014-Oct-15 14:32N 50°54' W 001°24'0 0.0
2014-Oct-15 13:32N 50°54' W 001°24'0 0.0
2014-Oct-15 12:32N 50°54' W 001°24'0 0.0
2014-Oct-15 11:29N 50°54' W 001°24'0 0.0
2014-Oct-15 10:29N 50°54' W 001°24'0 0.0
2014-Oct-15 09:29N 50°54' W 001°24'0 0.0
2014-Oct-15 08:23N 50°54' W 001°24'0 0.0
2014-Oct-15 07:32N 50°54' W 001°24'3 3.5
2014-Oct-15 06:33N 50°51' W 001°20'9 8.8
2014-Oct-15 05:33N 50°46' W 001°09'1212.1
2014-Oct-15 04:33N 50°38' W 000°55'9 8.9
2014-Oct-15 03:32N 50°36' W 000°41'0 0.5
2014-Oct-15 02:33N 50°36' W 000°40'0 0.5
2014-Oct-15 01:33N 50°36' W 000°41'2 1.5
2014-Oct-15 00:31N 50°36' W 000°43'2 2.1
2014-Oct-14 23:33N 50°35' W 000°46'8 6.6
2014-Oct-14 22:24N 50°37' W 000°34'1 0.3
2014-Oct-14 19:34N 50°37' W 000°33'0 0.1
2014-Oct-14 17:32N 50°37' W 000°33'26 8.4
2014-Oct-14 14:28N 50°32' E 000°07'1415.5
2014-Oct-14 13:34N 50°35' E 000°29'1515.0
2014-Oct-14 12:34N 50°43' E 000°49'1815.8
2014-Oct-14 11:24N 50°53' E 001°13'1517.6
2014-Oct-14 10:34N 51°03' E 001°30'1817.8
2014-Oct-14 09:34N 51°16' E 001°50'1413.4
2014-Oct-14 08:33N 51°23' E 002°09'1515.1
2014-Oct-14 07:34N 51°23' E 002°33'1313.1
2014-Oct-14 06:33N 51°23' E 002°54'1414.5
2014-Oct-14 05:33N 51°25' E 003°17'1312.9
2014-Oct-14 04:33N 51°26' E 003°37'1111.0
2014-Oct-14 03:33N 51°21' E 003°53'8 7.7
2014-Oct-14 02:33N 51°22' E 004°06'9 9.2
2014-Oct-14 01:33N 51°18' E 004°18'2 2.1
2014-Oct-14 00:34N 51°16' E 004°17'2 2.2
2014-Oct-13 23:33N 51°16' E 004°13'0 0.1
2014-Oct-13 22:30N 51°16' E 004°13'0 0.0
2014-Oct-13 21:33N 51°16' E 004°13'0 0.0
2014-Oct-13 20:33N 51°16' E 004°13'0 0.0
2014-Oct-13 19:30N 51°16' E 004°13'0 0.0
2014-Oct-13 18:30N 51°16' E 004°13'0 0.0
2014-Oct-13 17:30N 51°16' E 004°13'0 0.0
2014-Oct-13 16:33N 51°16' E 004°13'0 0.0
2014-Oct-13 15:33N 51°16' E 004°13'0 0.0
2014-Oct-13 14:33N 51°16' E 004°13'0 0.0
2014-Oct-13 13:33N 51°16' E 004°13'0 0.0
2014-Oct-13 12:33N 51°16' E 004°13'0 0.0
2014-Oct-13 11:33N 51°16' E 004°13'0 0.0
2014-Oct-13 10:30N 51°16' E 004°13'0 0.0
2014-Oct-13 09:33N 51°16' E 004°13'0 0.0
2014-Oct-13 08:33N 51°16' E 004°13'0 0.0
2014-Oct-13 07:33N 51°16' E 004°13'0 0.0
2014-Oct-13 06:33N 51°16' E 004°13'0 0.0
2014-Oct-13 05:33N 51°16' E 004°13'0 0.0
2014-Oct-13 04:33N 51°16' E 004°13'  
Track history (hours):
 
Tides and Currents Weather Stations Pressure Air Temp Water Temp Dewpoint Dewpoint Depression Visibility Wind Speed Wind Dir Waves Ship Positions

Morning Lady

Last reported at 2014-Oct-23 03:34 UTC. Time now 2014-Oct-24 16:19 UTC.
Position N 36°32' E 013°49'.

Length 234 m; draft 9.9 m.

Type: Ship. MMSI: 356473000.

Date/timePositionNaut miles runAvg speedWind from/ knotsBaromVisibWave heightAir tempDewpointWater temp
2014-Oct-23 03:34N 36°32' E 013°49'53616.2
2014-Oct-21 18:22N 40°42' E 003°42'1518.4
2014-Oct-21 17:33N 40°49' E 003°24'2018.1
2014-Oct-21 16:27N 40°58' E 003°01'1617.7
2014-Oct-21 15:33N 41°04' E 002°42'1817.3
2014-Oct-21 14:32N 41°12' E 002°21'21 1.1
2014-Oct-20 19:33N 40°56' E 002°02'1513.8
2014-Oct-20 18:26N 40°43' E 001°52'1415.0
2014-Oct-20 17:29N 40°30' E 001°43'1413.5
2014-Oct-20 16:26N 40°17' E 001°35'1314.1
2014-Oct-20 15:31N 40°06' E 001°27'1814.2
2014-Oct-20 14:17N 39°51' E 001°16'11714.9
2014-Oct-20 06:25N 38°08' E 000°03'1315.0
2014-Oct-20 05:33N 37°57' W 000°05'1514.9
2014-Oct-20 04:33N 37°43' W 000°14'1515.1
2014-Oct-20 03:33N 37°30' W 000°23'3115.3
2014-Oct-20 01:33N 37°04' W 000°42'1515.1
2014-Oct-20 00:32N 36°54' W 000°58'1515.3
2014-Oct-19 23:33N 36°47' W 001°14'20215.5
2014-Oct-19 10:33N 35°59' W 005°18'9415.3
2014-Oct-19 04:26N 36°05' W 007°13'1415.5
2014-Oct-19 03:32N 36°08' W 007°30'1515.4
2014-Oct-19 02:33N 36°11' W 007°48'1615.8
2014-Oct-19 01:33N 36°16' W 008°07'1615.6
2014-Oct-19 00:32N 36°19' W 008°26'1515.7
2014-Oct-18 23:33N 36°23' W 008°45'1616.0
2014-Oct-18 22:34N 36°27' W 009°04'1515.4
2014-Oct-18 21:33N 36°32' W 009°22'6915.4
2014-Oct-18 17:03N 37°37' W 009°53'1215.8
2014-Oct-18 16:16N 37°49' W 009°56'1115.7
2014-Oct-18 15:33N 38°00' W 009°60'1615.6
2014-Oct-18 14:33N 38°15' W 010°05'  
2014-Oct-16 03:27N 49°47' W 003°28'1415.4
2014-Oct-16 02:33N 49°53' W 003°10'1514.8
2014-Oct-16 01:32N 50°00' W 002°49'8113.5
2014-Oct-15 19:33N 50°39' W 000°58'9 8.9
2014-Oct-15 18:34N 50°45' W 001°08'10 9.6
2014-Oct-15 17:34N 50°51' W 001°21'3 3.1
2014-Oct-15 16:32N 50°54' W 001°24'0 0.0
2014-Oct-15 15:29N 50°54' W 001°24'0 0.0
2014-Oct-15 14:32N 50°54' W 001°24'0 0.0
2014-Oct-15 13:32N 50°54' W 001°24'0 0.0
2014-Oct-15 12:32N 50°54' W 001°24'0 0.0
2014-Oct-15 11:29N 50°54' W 001°24'0 0.0
2014-Oct-15 10:29N 50°54' W 001°24'0 0.0
2014-Oct-15 09:29N 50°54' W 001°24'0 0.0
2014-Oct-15 08:23N 50°54' W 001°24'0 0.0
2014-Oct-15 07:32N 50°54' W 001°24'3 3.5
2014-Oct-15 06:33N 50°51' W 001°20'9 8.8
2014-Oct-15 05:33N 50°46' W 001°09'1212.1
2014-Oct-15 04:33N 50°38' W 000°55'9 8.9
2014-Oct-15 03:32N 50°36' W 000°41'0 0.5
2014-Oct-15 02:33N 50°36' W 000°40'0 0.5
2014-Oct-15 01:33N 50°36' W 000°41'2 1.5
2014-Oct-15 00:31N 50°36' W 000°43'2 2.1
2014-Oct-14 23:33N 50°35' W 000°46'8 6.6
2014-Oct-14 22:24N 50°37' W 000°34'1 0.3
2014-Oct-14 19:34N 50°37' W 000°33'0 0.1
2014-Oct-14 17:32N 50°37' W 000°33'26 8.4
2014-Oct-14 14:28N 50°32' E 000°07'1415.5
2014-Oct-14 13:34N 50°35' E 000°29'1515.0
2014-Oct-14 12:34N 50°43' E 000°49'1815.8
2014-Oct-14 11:24N 50°53' E 001°13'1517.6
2014-Oct-14 10:34N 51°03' E 001°30'1817.8
2014-Oct-14 09:34N 51°16' E 001°50'1413.4
2014-Oct-14 08:33N 51°23' E 002°09'1515.1
2014-Oct-14 07:34N 51°23' E 002°33'1313.1
2014-Oct-14 06:33N 51°23' E 002°54'1414.5
2014-Oct-14 05:33N 51°25' E 003°17'1312.9
2014-Oct-14 04:33N 51°26' E 003°37'1111.0
2014-Oct-14 03:33N 51°21' E 003°53'8 7.7
2014-Oct-14 02:33N 51°22' E 004°06'9 9.2
2014-Oct-14 01:33N 51°18' E 004°18'2 2.1
2014-Oct-14 00:34N 51°16' E 004°17'2 2.2
2014-Oct-13 23:33N 51°16' E 004°13'0 0.1
2014-Oct-13 22:30N 51°16' E 004°13'0 0.0
2014-Oct-13 21:33N 51°16' E 004°13'0 0.0
2014-Oct-13 20:33N 51°16' E 004°13'0 0.0
2014-Oct-13 19:30N 51°16' E 004°13'0 0.0
2014-Oct-13 18:30N 51°16' E 004°13'0 0.0
2014-Oct-13 17:30N 51°16' E 004°13'0 0.0
2014-Oct-13 16:33N 51°16' E 004°13'0 0.0
2014-Oct-13 15:33N 51°16' E 004°13'0 0.0
2014-Oct-13 14:33N 51°16' E 004°13'0 0.0
2014-Oct-13 13:33N 51°16' E 004°13'0 0.0
2014-Oct-13 12:33N 51°16' E 004°13'0 0.0
2014-Oct-13 11:33N 51°16' E 004°13'0 0.0
2014-Oct-13 10:30N 51°16' E 004°13'0 0.0
2014-Oct-13 09:33N 51°16' E 004°13'0 0.0
2014-Oct-13 08:33N 51°16' E 004°13'0 0.0
2014-Oct-13 07:33N 51°16' E 004°13'0 0.0
2014-Oct-13 06:33N 51°16' E 004°13'0 0.0
2014-Oct-13 05:33N 51°16' E 004°13'0 0.0
2014-Oct-13 04:33N 51°16' E 004°13'  

Dump ship's entire track history